Simultaneous Nadir Overpasses (SNOs) Predictions

Prediction of SNOs between FY3D and METOP-A Satellite Orbit:

Table of predicted SNOs for the next 14.0 days since TLE Epoch: 10/30/2021
Index Date (FY3D) Time (FY3D) Lat,Lon (FY3D) SZA (FY3D ) Date (METOP-A) Time (METOP-A) Lat,Lon (METOP-A) SZA (METOP-A ) Distance(km) Time Diff (sec)
1 11/10/2021 11:03:46 78.13, -7.44 95.86 11/10/2021 11:04:51 78.10, -3.69 95.61 85.91 65
2 11/10/2021 11:54:26 -77.99, 160.61 84.31 11/10/2021 11:55:35 -77.95, 162.90 84.49 53.45 69
3 11/10/2021 12:45:06 77.81, -31.15 95.48 11/10/2021 12:46:19 77.78, -30.55 95.40 14.47 73
4 11/10/2021 13:35:49 -77.75, 136.45 84.59 11/10/2021 13:37:02 -77.71, 136.48 84.65 4.24 73
5 11/10/2021 14:26:33 77.73, -56.13 95.40 11/10/2021 14:27:42 77.72, -56.18 95.37 2.18 69
6 11/10/2021 15:17:17 -77.72, 111.26 84.62 11/10/2021 15:18:23 -77.74, 111.23 84.61 2.35 66
7 11/10/2021 16:08:02 77.74, -81.52 95.42 11/10/2021 16:09:03 77.74, -81.43 95.41 2.28 61
8 11/10/2021 16:58:46 -77.72, 85.87 84.59 11/10/2021 16:59:45 -77.71, 85.79 84.61 2.00 59
9 11/10/2021 17:49:31 77.74,-106.92 95.45 11/10/2021 17:50:25 77.72,-106.87 95.41 3.06 54
10 11/10/2021 18:40:15 -77.72, 60.48 84.57 11/10/2021 18:41:06 -77.74, 60.55 84.57 2.01 51
11 11/10/2021 19:30:59 77.70,-132.11 95.42 11/10/2021 19:31:46 77.74,-132.11 95.45 3.62 47
12 11/10/2021 20:21:44 -77.73, 35.09 84.54 11/10/2021 20:22:28 -77.71, 35.11 84.57 1.69 44
13 11/10/2021 21:12:28 77.71,-157.50 95.45 11/10/2021 21:13:08 77.72,-157.55 95.45 1.43 40
14 11/10/2021 22:03:13 -77.73, 9.70 84.52 11/10/2021 22:03:49 -77.74, 9.87 84.53 3.96 36
15 11/10/2021 22:53:57 77.71, 177.11 95.47 11/10/2021 22:54:30 77.69, 177.01 95.45 3.19 33
16 11/10/2021 23:44:41 -77.70, -15.49 84.54 11/10/2021 23:45:11 -77.71, -15.57 84.53 2.73 30
17 11/11/2021 00:35:26 77.72, 151.72 95.50 11/11/2021 00:35:51 77.72, 151.77 95.49 1.20 25
18 11/11/2021 01:26:10 -77.70, -40.88 84.52 11/11/2021 01:26:33 -77.69, -41.01 84.52 3.17 23
19 11/11/2021 02:16:55 77.72, 126.33 95.52 11/11/2021 02:17:13 77.69, 126.33 95.49 3.19 18
20 11/11/2021 03:07:39 -77.71, -66.27 84.49 11/11/2021 03:07:54 -77.71, -66.25 84.49 1.06 15
21 11/11/2021 03:58:23 77.69, 101.14 95.50 11/11/2021 03:58:34 77.72, 101.08 95.53 3.48 11
22 11/11/2021 04:49:08 -77.71, -91.67 84.47 11/11/2021 04:49:16 -77.69, -91.69 84.48 2.02 8
23 11/11/2021 05:39:52 77.69, 75.74 95.52 11/11/2021 05:39:56 77.69, 75.65 95.53 2.36 4
24 11/11/2021 06:30:37 -77.71,-117.06 84.44 11/11/2021 06:30:37 -77.71,-116.94 84.45 2.82 0
25 11/11/2021 07:21:21 77.70, 50.35 95.55 11/11/2021 07:21:17 77.72, 50.40 95.57 2.51 4
26 11/11/2021 08:12:06 -77.72,-142.45 84.42 11/11/2021 08:11:59 -77.69,-142.38 84.45 3.37 7
27 11/11/2021 09:02:50 77.70, 24.96 95.57 11/11/2021 09:02:39 77.69, 24.96 95.57 0.68 11
28 11/11/2021 09:53:34 -77.68,-167.64 84.44 11/11/2021 09:53:20 -77.71,-167.62 84.41 3.56 14
29 11/11/2021 10:44:19 77.70, -0.43 95.60 11/11/2021 10:44:01 77.67, -0.48 95.57 3.72 18
30 11/11/2021 11:35:03 -77.69, 166.97 84.42 11/11/2021 11:34:42 -77.69, 166.94 84.41 0.95 21
31 11/11/2021 12:25:48 77.71, -25.82 95.62 11/11/2021 12:25:22 77.69, -25.72 95.61 2.99 26
32 11/11/2021 13:16:32 -77.69, 141.58 84.39 11/11/2021 13:16:04 -77.67, 141.50 84.40 2.84 28
33 11/11/2021 14:07:16 77.67, -51.02 95.60 11/11/2021 14:06:44 77.67, -51.16 95.61 3.43 32
34 11/11/2021 14:58:01 -77.70, 116.19 84.37 11/11/2021 14:57:25 -77.69, 116.26 84.37 1.72 36
35 11/11/2021 15:48:45 77.68, -76.41 95.62 11/11/2021 15:48:05 77.69, -76.40 95.65 1.85 40
36 11/11/2021 16:39:30 -77.70, 90.80 84.34 11/11/2021 16:38:47 -77.67, 90.82 84.36 3.26 43
37 11/11/2021 17:30:14 77.68,-101.80 95.65 11/11/2021 17:29:27 77.67,-101.84 95.65 1.48 47
38 11/11/2021 18:20:58 -77.66, 65.60 84.37 11/11/2021 18:20:08 -77.69, 65.58 84.33 3.31 50
39 11/11/2021 19:11:43 77.69,-127.19 95.67 11/11/2021 19:10:48 77.69,-127.09 95.69 2.59 55
40 11/11/2021 20:02:27 -77.67, 40.21 84.35 11/11/2021 20:01:30 -77.67, 40.14 84.33 1.84 57
41 11/11/2021 20:53:12 77.69,-152.58 95.70 11/11/2021 20:52:10 77.67,-152.53 95.69 2.50 62
42 11/11/2021 21:43:56 -77.67, 14.82 84.32 11/11/2021 21:42:51 -77.69, 14.89 84.29 2.79 65
43 11/11/2021 22:34:40 77.65,-177.78 95.67 11/11/2021 22:33:31 77.69,-177.77 95.72 4.36 69
44 11/11/2021 23:25:25 -77.68, -10.57 84.30 11/11/2021 23:24:13 -77.67, -10.55 84.29 0.86 72
45 11/12/2021 00:16:08 77.62, 157.03 95.65 11/12/2021 00:14:54 77.63, 156.60 95.70 10.46 74
46 11/12/2021 01:06:50 -77.52, -35.17 84.47 11/12/2021 01:05:38 -77.52, -36.55 84.38 33.26 72
47 11/12/2021 01:57:29 77.29, 133.20 95.26 11/12/2021 01:56:24 77.26, 129.67 95.45 86.50 65



Historial Predications of SNOs between FY3D and METOP-A
